SWA2870 KSFO-KLAX

Flight info

Callsign SWA2870
Flight time 1h 3m
Altitude 35000
Route WESLA5 SUSEY EBAYE BURGL IRNMN2
Aircraft B737/M-SADE2E3GIJ4RWZ/LB1D1

Departure

Time 2026-04-20 18:26
Airport San Francisco International Airport (KSFO)

Arrival

Time 2026-04-20 19:29
Airport Los Angeles International Airport (KLAX)
Time Latitude Longitude Altitude Speed Heading
2026-04-20 17:43 37.61577 -122.38316 21 ft 0 kts 226°
2026-04-20 18:12 37.61587 -122.38302 21 ft 4 kts 234°
2026-04-20 18:13 37.61599 -122.38272 21 ft 4 kts 264°
2026-04-20 18:13 37.61593 -122.38244 21 ft 4 kts 328°
2026-04-20 18:13 37.61579 -122.38241 21 ft 0 kts 26°
2026-04-20 18:17 37.61587 -122.38236 21 ft 7 kts 31°
2026-04-20 18:17 37.61593 -122.38165 21 ft 10 kts 115°
2026-04-20 18:17 37.61557 -122.38056 21 ft 12 kts 88°
2026-04-20 18:18 37.61594 -122.38008 21 ft 12 kts 28°
2026-04-20 18:18 37.61686 -122.37948 21 ft 15 kts 27°
2026-04-20 18:18 37.61774 -122.37872 21 ft 15 kts 17°
2026-04-20 18:18 37.61876 -122.37911 21 ft 20 kts 329°
2026-04-20 18:19 37.61975 -122.38051 21 ft 22 kts 299°
2026-04-20 18:19 37.62045 -122.38215 21 ft 21 kts 298°
2026-04-20 18:19 37.62111 -122.38371 21 ft 20 kts 298°
2026-04-20 18:19 37.62175 -122.38521 21 ft 19 kts 298°
2026-04-20 18:20 37.62214 -122.38615 21 ft 4 kts 296°
2026-04-20 18:20 37.62227 -122.38649 21 ft 4 kts 296°
2026-04-20 18:20 37.62260 -122.38731 21 ft 14 kts 298°
2026-04-20 18:20 37.62294 -122.38812 21 ft 10 kts 298°
2026-04-20 18:21 37.62328 -122.38891 21 ft 11 kts 298°
2026-04-20 18:21 37.62364 -122.38977 21 ft 11 kts 298°
2026-04-20 18:21 37.62398 -122.39059 21 ft 10 kts 297°
2026-04-20 18:21 37.62431 -122.39139 21 ft 10 kts 297°
2026-04-20 18:22 37.62463 -122.39216 21 ft 10 kts 298°
2026-04-20 18:22 37.62496 -122.39288 21 ft 9 kts 302°
2026-04-20 18:22 37.62525 -122.39342 21 ft 1 kts 330°
2026-04-20 18:22 37.62529 -122.39343 21 ft 0 kts 351°
2026-04-20 18:23 37.62530 -122.39343 21 ft 1 kts 351°
2026-04-20 18:23 37.62593 -122.39317 21 ft 12 kts 30°
2026-04-20 18:23 37.62616 -122.39279 21 ft 2 kts 115°
2026-04-20 18:23 37.62614 -122.39273 21 ft 0 kts 117°
2026-04-20 18:25 37.62577 -122.39184 21 ft 32 kts 117°
2026-04-20 18:25 37.62388 -122.38730 21 ft 83 kts 117°
2026-04-20 18:25 37.62046 -122.37915 23 ft 125 kts 117°
2026-04-20 18:26 37.61643 -122.36876 350 ft 131 kts 115°
2026-04-20 18:26 37.61247 -122.35828 830 ft 133 kts 115°
2026-04-20 18:26 37.60784 -122.34774 1227 ft 144 kts 120°
2026-04-20 18:26 37.60237 -122.33624 1496 ft 162 kts 119°
2026-04-20 18:27 37.59692 -122.32277 1767 ft 184 kts 115°
2026-04-20 18:27 37.59133 -122.30706 2041 ft 209 kts 115°
2026-04-20 18:27 37.58499 -122.28952 2420 ft 227 kts 116°
2026-04-20 18:27 37.57835 -122.27145 3290 ft 226 kts 117°
2026-04-20 18:28 37.57157 -122.25367 4083 ft 229 kts 122°
2026-04-20 18:28 37.56222 -122.23713 4781 ft 228 kts 134°
2026-04-20 18:28 37.55122 -122.22313 5596 ft 226 kts 141°
2026-04-20 18:28 37.53936 -122.21016 6479 ft 227 kts 144°
2026-04-20 18:29 37.52734 -122.19702 7320 ft 231 kts 143°
2026-04-20 18:29 37.51526 -122.18348 8187 ft 234 kts 143°
2026-04-20 18:29 37.50306 -122.16964 9053 ft 237 kts 144°
2026-04-20 18:29 37.49074 -122.15569 9943 ft 239 kts 144°
2026-04-20 18:30 37.47835 -122.14172 10846 ft 239 kts 146°
2026-04-20 18:30 37.46571 -122.12811 11735 ft 239 kts 148°
2026-04-20 18:30 37.45281 -122.11483 12598 ft 241 kts 149°
2026-04-20 18:30 37.43974 -122.10136 13408 ft 245 kts 149°
2026-04-20 18:31 37.42652 -122.08765 14245 ft 248 kts 149°
2026-04-20 18:31 37.41310 -122.07369 15088 ft 252 kts 149°
2026-04-20 18:31 37.39950 -122.05951 15929 ft 256 kts 149°
2026-04-20 18:31 37.38571 -122.04512 16764 ft 259 kts 149°
2026-04-20 18:32 37.37173 -122.03055 17597 ft 263 kts 149°
2026-04-20 18:32 37.35753 -122.01572 18399 ft 267 kts 150°
2026-04-20 18:32 37.34318 -122.00071 19186 ft 270 kts 150°
2026-04-20 18:32 37.32853 -121.98543 19894 ft 277 kts 150°
2026-04-20 18:33 37.31358 -121.96984 20660 ft 280 kts 150°
2026-04-20 18:33 37.29848 -121.95412 21402 ft 284 kts 150°
2026-04-20 18:33 37.28319 -121.93820 22133 ft 287 kts 151°
2026-04-20 18:33 37.26773 -121.92212 22848 ft 291 kts 151°
2026-04-20 18:34 37.25205 -121.90582 23532 ft 294 kts 151°
2026-04-20 18:34 37.23619 -121.88934 24188 ft 298 kts 152°
2026-04-20 18:34 37.22030 -121.87285 24801 ft 303 kts 152°
2026-04-20 18:34 37.20930 -121.86144 25212 ft 306 kts 151°
2026-04-20 18:35 37.18739 -121.83873 26016 ft 311 kts 151°
2026-04-20 18:35 37.17060 -121.82133 26612 ft 315 kts 150°
2026-04-20 18:35 37.15362 -121.80375 27190 ft 318 kts 150°
2026-04-20 18:35 37.13643 -121.78596 27756 ft 322 kts 150°
2026-04-20 18:36 37.12468 -121.77380 28127 ft 325 kts 149°
2026-04-20 18:36 37.10716 -121.75568 28656 ft 329 kts 149°
2026-04-20 18:36 37.08944 -121.73731 29188 ft 332 kts 148°
2026-04-20 18:36 37.07163 -121.71866 29696 ft 336 kts 148°
2026-04-20 18:37 37.05381 -121.70005 30190 ft 339 kts 148°
2026-04-20 18:37 37.03560 -121.68110 30711 ft 341 kts 148°
2026-04-20 18:37 37.01725 -121.66206 31199 ft 344 kts 148°
2026-04-20 18:37 36.99874 -121.64288 31694 ft 346 kts 148°
2026-04-20 18:38 36.98011 -121.62360 32150 ft 349 kts 148°
2026-04-20 18:38 36.96133 -121.60420 32595 ft 351 kts 148°
2026-04-20 18:38 36.94244 -121.58470 33027 ft 353 kts 147°
2026-04-20 18:38 36.92343 -121.56508 33442 ft 356 kts 147°
2026-04-20 18:39 36.90427 -121.54534 33837 ft 358 kts 147°
2026-04-20 18:39 36.88501 -121.52550 34230 ft 360 kts 147°
2026-04-20 18:39 36.86560 -121.50554 34610 ft 362 kts 147°
2026-04-20 18:39 36.84609 -121.48547 34942 ft 365 kts 147°
2026-04-20 18:40 36.80613 -121.44444 35000 ft 384 kts 147°
2026-04-20 18:40 36.76394 -121.40116 35002 ft 398 kts 146°
2026-04-20 18:41 36.72103 -121.35721 34993 ft 397 kts 146°
2026-04-20 18:41 36.67849 -121.31365 34992 ft 396 kts 146°
2026-04-20 18:42 36.63600 -121.26997 34999 ft 396 kts 146°
2026-04-20 18:42 36.59339 -121.22656 35008 ft 396 kts 146°
2026-04-20 18:43 36.55069 -121.18317 35012 ft 396 kts 146°
2026-04-20 18:43 36.50795 -121.13983 35016 ft 396 kts 146°
2026-04-20 18:44 36.46547 -121.09678 35020 ft 396 kts 146°
2026-04-20 18:44 36.42395 -121.05064 35024 ft 401 kts 139°
2026-04-20 18:45 36.38712 -120.99862 35030 ft 404 kts 136°
2026-04-20 18:45 36.35042 -120.94580 35036 ft 404 kts 136°
2026-04-20 18:46 36.31360 -120.89305 35043 ft 404 kts 136°
2026-04-20 18:46 36.27674 -120.84037 35049 ft 404 kts 136°
2026-04-20 18:47 36.23975 -120.78760 35053 ft 405 kts 136°
2026-04-20 18:47 36.20306 -120.73523 35057 ft 405 kts 136°
2026-04-20 18:48 36.16627 -120.68225 35060 ft 406 kts 136°
2026-04-20 18:48 36.12928 -120.62941 35064 ft 406 kts 136°
2026-04-20 18:49 36.09222 -120.57667 35067 ft 406 kts 136°
2026-04-20 18:49 36.05524 -120.52374 35071 ft 407 kts 136°
2026-04-20 18:50 36.01810 -120.47104 35072 ft 406 kts 136°
2026-04-20 18:50 35.98090 -120.41852 35071 ft 407 kts 135°
2026-04-20 18:51 35.94379 -120.36623 35071 ft 407 kts 135°
2026-04-20 18:51 35.90649 -120.31371 35071 ft 407 kts 135°
2026-04-20 18:52 35.86705 -120.26420 35070 ft 402 kts 144°
2026-04-20 18:52 35.82164 -120.22463 35071 ft 398 kts 152°
2026-04-20 18:53 35.77435 -120.18915 35071 ft 398 kts 152°
2026-04-20 18:53 35.72705 -120.15363 35073 ft 398 kts 152°
2026-04-20 18:54 35.67981 -120.11813 35076 ft 398 kts 152°
2026-04-20 18:54 35.63259 -120.08253 35076 ft 398 kts 152°
2026-04-20 18:55 35.58571 -120.04722 35072 ft 398 kts 152°
2026-04-20 18:55 35.53858 -120.01151 35067 ft 398 kts 152°
2026-04-20 18:56 35.49137 -119.97589 35065 ft 399 kts 152°
2026-04-20 18:56 35.44399 -119.94032 35062 ft 399 kts 152°
2026-04-20 18:57 35.39665 -119.90487 35070 ft 399 kts 152°
2026-04-20 18:57 35.34926 -119.86940 35076 ft 399 kts 152°
2026-04-20 18:58 35.30192 -119.83402 35078 ft 398 kts 152°
2026-04-20 18:58 35.25643 -119.79551 35076 ft 401 kts 146°
2026-04-20 18:59 35.21242 -119.75345 35073 ft 401 kts 146°
2026-04-20 18:59 35.19035 -119.73260 34938 ft 401 kts 146°
2026-04-20 18:59 35.16830 -119.71183 34598 ft 397 kts 145°
2026-04-20 19:00 35.14645 -119.69113 34043 ft 398 kts 146°
2026-04-20 19:00 35.12447 -119.67049 33430 ft 399 kts 146°
2026-04-20 19:00 35.10237 -119.64985 32890 ft 399 kts 146°
2026-04-20 19:00 35.08039 -119.62940 32434 ft 397 kts 146°
2026-04-20 19:01 35.05851 -119.60908 31986 ft 394 kts 146°
2026-04-20 19:01 35.03674 -119.58887 31544 ft 391 kts 146°
2026-04-20 19:01 35.01515 -119.56885 31109 ft 389 kts 146°
2026-04-20 19:01 34.99373 -119.54900 30681 ft 386 kts 146°
2026-04-20 19:02 34.97242 -119.52926 30253 ft 383 kts 146°
2026-04-20 19:02 34.95122 -119.50963 29824 ft 381 kts 146°
2026-04-20 19:02 34.93044 -119.49040 29389 ft 378 kts 147°
2026-04-20 19:02 34.90950 -119.47100 28942 ft 376 kts 147°
2026-04-20 19:03 34.88857 -119.45213 28501 ft 374 kts 148°
2026-04-20 19:03 34.86759 -119.43343 28062 ft 373 kts 148°
2026-04-20 19:03 34.84669 -119.41479 27623 ft 371 kts 148°
2026-04-20 19:03 34.82592 -119.39625 27187 ft 369 kts 148°
2026-04-20 19:04 34.80532 -119.37787 26754 ft 366 kts 148°
2026-04-20 19:04 34.78487 -119.35961 26324 ft 364 kts 149°
2026-04-20 19:04 34.76455 -119.34149 25897 ft 361 kts 149°
2026-04-20 19:04 34.74430 -119.32341 25473 ft 359 kts 149°
2026-04-20 19:05 34.72413 -119.30576 25065 ft 356 kts 150°
2026-04-20 19:05 34.70404 -119.28825 24655 ft 354 kts 150°
2026-04-20 19:05 34.68407 -119.27083 24243 ft 352 kts 150°
2026-04-20 19:05 34.66421 -119.25350 23831 ft 350 kts 150°
2026-04-20 19:06 34.64449 -119.23628 23422 ft 348 kts 150°
2026-04-20 19:06 34.62505 -119.21953 23017 ft 346 kts 150°
2026-04-20 19:06 34.60525 -119.20247 22604 ft 343 kts 150°
2026-04-20 19:06 34.58582 -119.18575 22197 ft 341 kts 150°
2026-04-20 19:07 34.56679 -119.16936 21798 ft 339 kts 150°
2026-04-20 19:07 34.54772 -119.15262 21396 ft 337 kts 149°
2026-04-20 19:07 34.52889 -119.13584 20998 ft 335 kts 149°
2026-04-20 19:07 34.51014 -119.11922 20603 ft 333 kts 149°
2026-04-20 19:08 34.49149 -119.10271 20208 ft 330 kts 149°
2026-04-20 19:08 34.45447 -119.07001 19430 ft 327 kts 149°
2026-04-20 19:08 34.43614 -119.05381 19044 ft 324 kts 149°
2026-04-20 19:09 34.41790 -119.03800 18665 ft 322 kts 150°
2026-04-20 19:09 34.39970 -119.02228 18285 ft 320 kts 150°
2026-04-20 19:09 34.38164 -119.00666 17907 ft 318 kts 150°
2026-04-20 19:09 34.36371 -118.99117 17509 ft 316 kts 150°
2026-04-20 19:10 34.34605 -118.97588 17095 ft 315 kts 149°
2026-04-20 19:10 34.32844 -118.96029 16693 ft 313 kts 148°
2026-04-20 19:10 34.31117 -118.94444 16299 ft 311 kts 148°
2026-04-20 19:10 34.29389 -118.92870 15907 ft 309 kts 148°
2026-04-20 19:11 34.27668 -118.91310 15519 ft 308 kts 148°
2026-04-20 19:11 34.25962 -118.89761 15136 ft 306 kts 148°
2026-04-20 19:11 34.24271 -118.88210 14754 ft 304 kts 147°
2026-04-20 19:11 34.22593 -118.86666 14374 ft 302 kts 147°
2026-04-20 19:12 34.20922 -118.85132 13995 ft 301 kts 147°
2026-04-20 19:12 34.19258 -118.83606 13620 ft 299 kts 147°
2026-04-20 19:12 34.17597 -118.82083 13247 ft 298 kts 147°
2026-04-20 19:12 34.15959 -118.80560 12897 ft 297 kts 144°
2026-04-20 19:13 34.14411 -118.78904 12563 ft 296 kts 141°
2026-04-20 19:13 34.12909 -118.77211 12229 ft 294 kts 141°
2026-04-20 19:13 34.11405 -118.75545 11902 ft 292 kts 141°
2026-04-20 19:13 34.09901 -118.73899 11573 ft 291 kts 141°
2026-04-20 19:14 34.08418 -118.72283 11252 ft 291 kts 141°
2026-04-20 19:14 34.06904 -118.70641 10926 ft 291 kts 140°
2026-04-20 19:14 34.05406 -118.69018 10605 ft 288 kts 140°
2026-04-20 19:14 34.03975 -118.67358 10280 ft 285 kts 132°
2026-04-20 19:15 34.03010 -118.65297 9967 ft 283 kts 112°
2026-04-20 19:15 34.02524 -118.62997 9642 ft 283 kts 101°
2026-04-20 19:15 34.02332 -118.60650 9326 ft 280 kts 96°
2026-04-20 19:15 34.02164 -118.58325 9011 ft 276 kts 97°
2026-04-20 19:16 34.01982 -118.56035 8704 ft 272 kts 97°
2026-04-20 19:16 34.01793 -118.53787 8404 ft 268 kts 97°
2026-04-20 19:16 34.01579 -118.51576 8111 ft 264 kts 97°
2026-04-20 19:16 34.01371 -118.49400 7823 ft 260 kts 97°
2026-04-20 19:17 34.01171 -118.47251 7536 ft 257 kts 96°
2026-04-20 19:17 34.01178 -118.45111 7250 ft 254 kts 86°
2026-04-20 19:17 34.01436 -118.43010 6968 ft 251 kts 80°
2026-04-20 19:17 34.01800 -118.40969 6694 ft 248 kts 78°
2026-04-20 19:18 34.02163 -118.38940 6417 ft 246 kts 78°
2026-04-20 19:18 34.02522 -118.36936 6141 ft 243 kts 78°
2026-04-20 19:18 34.02854 -118.34965 6006 ft 237 kts 81°
2026-04-20 19:18 34.03084 -118.33038 5848 ft 234 kts 83°
2026-04-20 19:19 34.03256 -118.31094 5623 ft 232 kts 85°
2026-04-20 19:19 34.03382 -118.29164 5394 ft 230 kts 85°
2026-04-20 19:19 34.03551 -118.27246 5168 ft 230 kts 84°
2026-04-20 19:19 34.03750 -118.25338 4946 ft 229 kts 83°
2026-04-20 19:20 34.03953 -118.23434 4720 ft 228 kts 83°
2026-04-20 19:20 34.04154 -118.21541 4493 ft 228 kts 83°
2026-04-20 19:20 34.04355 -118.19650 4267 ft 227 kts 83°
2026-04-20 19:20 34.04556 -118.17764 4046 ft 226 kts 83°
2026-04-20 19:21 34.04756 -118.15892 3993 ft 225 kts 83°
2026-04-20 19:21 34.04953 -118.14041 3996 ft 225 kts 83°
2026-04-20 19:21 34.05046 -118.12157 3982 ft 226 kts 98°
2026-04-20 19:21 34.04480 -118.10430 3970 ft 221 kts 128°
2026-04-20 19:22 34.03285 -118.09349 3984 ft 215 kts 155°
2026-04-20 19:22 34.01871 -118.08795 4002 ft 212 kts 166°
2026-04-20 19:22 34.00425 -118.08459 3995 ft 212 kts 173°
2026-04-20 19:22 33.99435 -118.08528 3962 ft 213 kts 196°
2026-04-20 19:23 33.98298 -118.09557 3957 ft 212 kts 237°
2026-04-20 19:23 33.97946 -118.11267 4001 ft 214 kts 268°
2026-04-20 19:23 33.97948 -118.13065 4029 ft 216 kts 266°
2026-04-20 19:23 33.97838 -118.14865 4020 ft 215 kts 263°
2026-04-20 19:24 33.97650 -118.16649 3997 ft 214 kts 262°
2026-04-20 19:24 33.97460 -118.18441 3747 ft 215 kts 262°
2026-04-20 19:24 33.97273 -118.20229 3473 ft 214 kts 262°
2026-04-20 19:24 33.97089 -118.21985 3205 ft 208 kts 262°
2026-04-20 19:25 33.96914 -118.23675 2921 ft 198 kts 262°
2026-04-20 19:25 33.96749 -118.25255 2641 ft 183 kts 262°
2026-04-20 19:25 33.96598 -118.26723 2392 ft 170 kts 262°
2026-04-20 19:25 33.96457 -118.28082 2168 ft 157 kts 262°
2026-04-20 19:26 33.96326 -118.29350 1989 ft 150 kts 262°
2026-04-20 19:26 33.96199 -118.30575 1830 ft 146 kts 262°
2026-04-20 19:26 33.96076 -118.31768 1595 ft 138 kts 262°
2026-04-20 19:26 33.95961 -118.32878 1393 ft 130 kts 263°
2026-04-20 19:27 33.95852 -118.33936 1228 ft 125 kts 263°
2026-04-20 19:27 33.95747 -118.34961 1071 ft 122 kts 263°
2026-04-20 19:27 33.95644 -118.35958 913 ft 121 kts 262°
2026-04-20 19:27 33.95541 -118.36963 749 ft 121 kts 262°
2026-04-20 19:28 33.95438 -118.37968 556 ft 121 kts 262°
2026-04-20 19:28 33.95331 -118.38965 375 ft 119 kts 261°
2026-04-20 19:28 33.95233 -118.39952 213 ft 118 kts 262°
2026-04-20 19:28 33.95136 -118.40917 137 ft 110 kts 263°
2026-04-20 19:29 33.95061 -118.41649 135 ft 61 kts 262°
2026-04-20 19:29 33.95013 -118.42094 134 ft 53 kts 263°
2026-04-20 19:29 33.94959 -118.42466 134 ft 35 kts 250°
2026-04-20 19:29 33.94872 -118.42660 134 ft 20 kts 233°
2026-04-20 19:30 33.94776 -118.42759 134 ft 18 kts 208°
2026-04-20 19:30 33.94672 -118.42789 134 ft 14 kts 180°